STARLINK-5884 (55957 NORAD) Tracking and Keplerian Element Data

This shows tracking and keplerian element data for the satellite.

Feedback or suggestion? Click here.




ElementValue
Catalog55957
NameSTARLINK-5884
Epoch Orbit840
Epoch Day126.93018686
Epoch Year2023
RAAN40.0263
Inclination69.9999
Eccentricity0.0003397
Argument of Perigee265.5043
Mean Anonmoly94.5764
Mean Motion15.69945135
Decay Rate5.409E-05
L11 55957U 23037AV 23126.93018686 .00005409 00000+0 46682-4 0 9998
L22 55957 69.9999 40.0263 0003397 265.5043 94.5764 15.69945135 8401



Live tracking and technical data element details for STARLINK-5884 (NORAD 55957). STARLINK-5884 can be tracked NOW for your location showing map with azimuth and elevation plus other details from your city location.







IsCatalogInMostPopularTable: catalog: 55957, numindb: 9
Update: records affected: 1



GetName: 55957 STARLINK-5884

Hit Count: updated at: Tue, 06 Jun 2023 02:14:22 GMT